FW3812 Weather Reports


Display with metric or nautical units.
time (UTC)temp
F
wind
direction
speed
MPH
gust
MPH
rain 1hr
in
rain 24hr
in
rain mn
in
humidity
%
barometer
mb
20260507030424 47 157 0.0 0.0 0.00 0.00 0.00 68 1012.2
20260507025433 48 157 0.0 0.0 0.00 0.00 0.00 69 1012.2
20260507024431 48 157 0.0 0.0 0.00 0.00 0.00 65 1012.2
20260507023439 48 157 0.0 0.0 0.00 0.00 0.00 65 1012.1
20260507022458 48 157 0.0 0.0 0.00 0.00 0.00 69 1012.1
20260507021443 48 157 0.0 0.0 0.00 0.00 0.00 72 1012.1
20260507020507 49 157 0.0 0.0 0.00 0.00 0.00 70 1012.1
20260507014401 49 157 0.0 0.0 0.00 0.00 0.00 65 1011.8
20260507013410 50 157 0.0 0.0 0.00 0.00 0.00 69 1011.7
20260507012422 50 157 0.0 0.0 0.00 0.00 0.00 67 1011.6
20260507011421 51 157 0.0 0.0 0.00 0.00 0.00 59 1011.6
20260507010401 51 157 0.0 0.0 0.00 0.00 0.00 56 1011.6
20260507005416 52 157 0.0 0.0 0.00 0.00 0.00 52 1011.3
20260507004346 53 157 0.0 0.0 0.00 0.00 0.00 54 1011.4
20260507003312 53 157 0.0 0.0 0.00 0.02 0.00 47 1011.2
20260507002332 54 154 0.0 0.0 0.00 0.02 0.00 47 1011.1
20260507001321 54 149 0.0 0.0 0.00 0.02 0.00 46 1011.1
20260507000301 55 143 0.0 0.0 0.00 0.02 0.00 45 1011.1
20260506234132 55 152 0.0 0.0 0.00 0.02 0.00 44 1011.3
20260506233109 55 111 0.0 0.0 0.00 0.02 0.00 46 1011.3
20260506232119 55 119 0.0 0.0 0.00 0.03 0.00 43 1011.1
20260506231056 55 155 0.0 0.0 0.00 0.03 0.00 42 1011.3
20260506230107 56 129 0.0 0.0 0.00 0.03 0.00 43 1011.3
20260506225041 56 119 0.0 0.0 0.00 0.03 0.00 42 1011.4
20260506224021 56 170 0.0 0.0 0.00 0.03 0.00 42 1011.3
20260506223042 56 82 0.0 0.0 0.00 0.03 0.00 43 1011.3
20260506222008 57 54 0.0 0.0 0.00 0.04 0.00 42 1011.2
20260506221028 57 163 0.0 0.0 0.00 0.05 0.00 40 1011.2
20260506213754 57 192 0.0 0.0 0.00 0.08 0.00 43 1011.1
20260506211658 57 141 0.0 0.0 0.00 0.10 0.00 40 1011.3
20260506210717 57 150 0.0 5.0 0.00 0.10 0.00 43 1011.2
20260506205732 57 171 0.0 3.0 0.00 0.10 0.00 41 1011.2
20260506204726 56 69 0.0 0.0 0.00 0.10 0.00 42 1011.3
20260506203658 56 167 0.0 0.0 0.00 0.10 0.00 43 1011.1
20260506202646 57 136 0.0 1.0 0.00 0.10 0.00 38 1011.0
20260506201706 57 118 0.0 0.0 0.00 0.10 0.00 39 1011.0
20260506200710 57 192 0.0 2.0 0.00 0.10 0.00 40 1011.4
20260506195734 57 95 0.0 0.0 0.00 0.10 0.00 39 1011.4
20260506193622 56 131 0.0 0.0 0.00 0.12 0.00 42 1011.5
20260506192602 56 88 0.0 2.0 0.00 0.12 0.00 41 1011.6
20260506191533 57 47 0.0 0.0 0.00 0.12 0.00 40 1011.6
20260506190544 56 86 0.0 0.0 0.00 0.12 0.00 41 1011.5
20260506185542 56 167 0.0 3.0 0.00 0.12 0.00 41 1011.7
20260506184547 55 87 0.0 0.0 0.00 0.12 0.00 43 1011.7
20260506183518 55 194 0.0 0.0 0.00 0.13 0.00 42 1011.9
20260506182537 55 179 0.0 0.0 0.00 0.13 0.00 42 1011.9
20260506181513 54 195 0.0 0.0 0.00 0.13 0.00 42 1011.8
20260506180503 54 119 0.0 0.0 0.00 0.13 0.00 42 1012.0
20260506175453 55 110 0.0 0.0 0.00 0.13 0.00 41 1011.8
20260506174503 55 165 0.0 0.0 0.00 0.13 0.00 41 1011.7
20260506173505 55 207 0.0 0.0 0.00 0.13 0.00 40 1011.8
20260506172522 55 164 0.0 1.0 0.00 0.13 0.00 40 1011.7
20260506171517 55 207 0.0 0.0 0.00 0.13 0.00 43 1011.6
20260506170520 55 167 0.0 0.0 0.00 0.13 0.00 43 1011.6
20260506165453 55 247 0.0 0.0 0.00 0.13 0.00 41 1011.8
20260506164502 55 145 0.0 0.0 0.00 0.13 0.00 43 1011.8
20260506163525 55 200 0.0 0.0 0.00 0.13 0.00 42 1011.8
20260506162547 55 182 0.0 10.0 0.00 0.13 0.00 40 1011.9
20260506161606 56 159 0.0 0.0 0.00 0.13 0.00 41 1011.7
20260506160531 56 139 0.0 4.0 0.00 0.13 0.00 40 1011.9
20260506155520 56 282 0.0 0.0 0.00 0.13 0.00 42 1011.8
20260506154513 56 157 0.0 6.0 0.00 0.13 0.00 42 1012.0
20260506153456 55 126 0.0 0.0 0.00 0.13 0.00 42 1011.9
20260506150237 55 220 0.0 0.0 0.00 0.13 0.00 45 1011.7
20260506145223 54 242 0.0 0.0 0.00 0.13 0.00 45 1011.5
20260506144223 54 188 0.0 1.0 0.00 0.13 0.00 44 1011.4
20260506143210 54 166 0.0 0.0 0.00 0.13 0.00 44 1011.4
20260506142149 53 161 0.0 0.0 0.00 0.13 0.00 52 1011.1
20260506141154 53 190 0.0 0.0 0.00 0.13 0.00 51 1011.2
20260506140219 52 207 0.0 0.0 0.00 0.13 0.00 48 1011.1
20260506135144 51 153 0.0 10.0 0.00 0.13 0.00 47 1011.0
20260506134154 51 179 0.0 0.0 0.00 0.13 0.00 52 1011.0
20260506132050 50 202 0.0 0.0 0.00 0.13 0.00 56 1010.8
20260506131045 49 171 0.0 0.0 0.00 0.13 0.00 58 1010.4
20260506124837 48 239 0.0 0.0 0.00 0.13 0.00 61 1010.2
20260506123859 48 236 0.0 0.0 0.00 0.13 0.00 64 1010.2
20260506122903 48 168 0.0 0.0 0.00 0.13 0.00 66 1010.3
20260506121904 47 192 0.0 0.0 0.00 0.13 0.00 70 1010.1
20260506120846 46 193 0.0 0.0 0.00 0.13 0.00 72 1010.2
20260506115837 46 202 0.0 0.0 0.00 0.13 0.00 77 1009.9
20260506114810 45 184 0.0 0.0 0.00 0.13 0.00 79 1009.5
20260506113812 45 184 0.0 0.0 0.00 0.13 0.00 83 1009.6
20260506112815 44 186 0.0 0.0 0.00 0.13 0.00 82 1009.3
20260506111802 44 182 0.0 0.0 0.00 0.13 0.00 83 1009.1
20260506110744 45 183 0.0 0.0 0.00 0.13 0.00 86 1008.9
20260506105753 45 165 0.0 0.0 0.00 0.13 0.00 87 1008.6
20260506104756 45 164 0.0 0.0 0.00 0.13 0.00 88 1008.6
20260506103807 45 188 0.0 0.0 0.00 0.13 0.00 89 1008.3
20260506102754 45 173 0.0 0.0 0.00 0.13 0.00 90 1008.1
20260506101730 45 178 0.0 0.0 0.00 0.13 0.00 90 1008.1